EW8865 Weather Reports


time (UTC)temp
C
wind
direction
speed
KPH
gust
KPH
rain 1hr
cm
rain 24hr
cm
rain mn
cm
humidity
%
barometer
mb
20260507093003 15 132 12.9 22.5 0.00 0.00 0.00 66 1014.6
20260507092504 15 127 6.4 16.1 0.00 0.00 0.00 68 1014.6
20260507092004 14 123 6.4 19.3 0.00 0.00 0.00 69 1014.6
20260507091503 14 125 8.0 19.3 0.00 0.00 0.00 68 1014.7
20260507091004 14 168 9.7 16.1 0.00 0.00 0.00 67 1014.7
20260507090504 14 122 11.3 19.3 0.00 0.00 0.00 68 1014.7
20260507085504 13 127 8.0 16.1 0.00 0.00 0.00 70 1014.8
20260507085004 13 129 9.7 14.5 0.00 0.00 0.00 70 1014.7
20260507084504 13 140 4.8 12.9 0.00 0.00 0.00 73 1014.8
20260507084003 12 160 4.8 14.5 0.00 0.00 0.00 70 1014.8
20260507082504 11 104 4.8 12.9 0.00 0.00 0.00 75 1014.8
20260507081503 11 103 4.8 11.3 0.00 0.00 0.00 76 1014.8
20260507081004 11 101 4.8 12.9 0.00 0.00 0.00 76 1014.8
20260507080503 11 101 6.4 11.3 0.00 0.00 0.00 77 1014.8
20260507080004 10 89 6.4 12.9 0.00 0.00 0.00 78 1014.8
20260507075504 10 70 8.0 12.9 0.00 0.00 0.00 78 1014.8
20260507075004 10 105 6.4 9.7 0.00 0.00 0.00 78 1014.8
20260507074003 10 90 3.2 12.9 0.00 0.00 0.00 79 1014.9
20260507073503 10 99 4.8 11.3 0.00 0.00 0.00 80 1014.8
20260507073004 9 90 4.8 8.0 0.00 0.00 0.00 80 1014.8
20260507072503 9 75 3.2 9.7 0.00 0.00 0.00 80 1014.8
20260507071503 9 104 9.7 14.5 0.00 0.00 0.00 80 1014.8
20260507071003 9 101 9.7 19.3 0.00 0.00 0.00 80 1014.7
20260507070504 8 88 8.0 14.5 0.00 0.00 0.00 80 1014.8
20260507070009 8 96 6.4 11.3 0.00 0.00 0.00 80 1014.7
20260507065504 8 89 8.0 14.5 0.00 0.00 0.00 80 1014.7
20260507065004 8 94 8.0 14.5 0.00 0.00 0.00 81 1014.6
20260507064503 8 101 1.6 11.3 0.00 0.00 0.00 81 1014.6
20260507063503 8 93 3.2 9.7 0.00 0.00 0.00 81 1014.6
20260507063004 8 107 3.2 4.8 0.00 0.00 0.00 81 1014.6
20260507062503 8 115 3.2 4.8 0.00 0.00 0.00 81 1014.5
20260507062003 8 112 3.2 4.8 0.00 0.00 0.00 82 1014.5
20260507061004 8 93 1.6 3.2 0.00 0.00 0.00 82 1014.4
20260507055503 8 88 1.6 4.8 0.00 0.00 0.00 81 1014.4
20260507054504 8 89 3.2 4.8 0.00 0.00 0.00 81 1014.4
20260507052504 8 93 3.2 9.7 0.00 0.00 0.00 81 1014.2
20260507052003 8 94 3.2 4.8 0.00 0.00 0.00 81 1014.2
20260507051503 8 82 6.4 11.3 0.00 0.00 0.00 81 1014.3
20260507051003 8 86 3.2 11.3 0.00 0.00 0.00 81 1014.3
20260507050504 8 94 4.8 9.7 0.00 0.00 0.00 81 1014.3
20260507050005 8 59 4.8 11.3 0.00 0.00 0.00 80 1014.3
20260507045503 8 75 3.2 9.7 0.00 0.00 0.00 80 1014.2
20260507045004 8 65 4.8 12.9 0.00 0.00 0.00 80 1014.2
20260507044503 8 94 4.8 12.9 0.00 0.00 0.00 80 1014.2
20260507044003 8 98 4.8 11.3 0.00 0.00 0.00 80 1014.2
20260507043504 8 82 3.2 11.3 0.00 0.00 0.00 80 1014.1
20260507043004 8 92 4.8 11.3 0.00 0.00 0.00 80 1014.1
20260507042504 8 80 3.2 14.5 0.00 0.00 0.00 80 1014.2
20260507041503 8 81 4.8 14.5 0.00 0.00 0.00 80 1014.2
20260507041003 8 91 4.8 11.3 0.00 0.00 0.00 79 1014.2
20260507040504 8 79 6.4 11.3 0.00 0.00 0.00 79 1014.2
20260507040004 8 67 4.8 9.7 0.00 0.00 0.00 79 1014.2
20260507035504 8 94 3.2 12.9 0.00 0.00 0.00 79 1014.2
20260507035004 8 102 4.8 14.5 0.00 0.00 0.00 79 1014.1
20260507034504 8 113 3.2 11.3 0.00 0.00 0.00 79 1014.0
20260507034004 8 86 4.8 8.0 0.00 0.00 0.00 79 1014.0
20260507033503 8 82 6.4 12.9 0.00 0.00 0.00 79 1014.1
20260507033004 8 112 3.2 9.7 0.00 0.00 0.00 79 1014.2
20260507032504 8 115 4.8 11.3 0.00 0.00 0.00 79 1014.1
20260507032004 8 75 4.8 11.3 0.00 0.00 0.00 79 1014.1
20260507031503 8 87 3.2 11.3 0.00 0.00 0.00 78 1014.1
20260507031004 8 80 4.8 9.7 0.00 0.00 0.00 78 1014.2
20260507030503 8 89 3.2 4.8 0.00 0.00 0.00 78 1014.1
20260507030004 8 89 3.2 9.7 0.00 0.00 0.00 78 1014.2
20260507025503 8 94 3.2 4.8 0.00 0.00 0.00 78 1014.2
20260507025004 8 96 4.8 12.9 0.00 0.00 0.00 78 1014.2
20260507024503 8 61 6.4 12.9 0.00 0.00 0.00 78 1014.2
20260507024004 8 97 4.8 12.9 0.00 0.00 0.00 77 1014.2
20260507023503 8 86 3.2 9.7 0.00 0.00 0.00 77 1014.2
20260507023004 8 91 3.2 4.8 0.00 0.00 0.00 77 1014.2
20260507022504 8 95 3.2 9.7 0.00 0.00 0.00 77 1014.2
20260507022004 8 96 1.6 9.7 0.00 0.00 0.00 77 1014.2
20260507021504 8 78 4.8 11.3 0.00 0.00 0.00 77 1014.2
20260507021004 8 95 8.0 11.3 0.00 0.00 0.00 77 1014.2
20260507020503 8 93 4.8 12.9 0.00 0.00 0.00 77 1014.2
20260507020004 8 97 3.2 4.8 0.00 0.00 0.00 76 1014.2
20260507015504 8 94 4.8 9.7 0.00 0.00 0.00 76 1014.2
20260507015004 9 90 4.8 11.3 0.00 0.00 0.00 76 1014.2
20260507014004 9 93 4.8 12.9 0.00 0.00 0.00 76 1014.2
20260507013503 9 96 6.4 14.5 0.00 0.00 0.00 76 1014.1
20260507013004 9 112 8.0 14.5 0.00 0.00 0.00 75 1014.2
20260507012504 9 87 6.4 11.3 0.00 0.00 0.00 75 1014.2
20260507012004 9 98 4.8 11.3 0.00 0.00 0.00 75 1014.2
20260507011504 9 94 8.0 11.3 0.00 0.00 0.00 75 1014.3
20260507011003 9 95 6.4 11.3 0.00 0.00 0.00 75 1014.3
20260507010504 9 103 3.2 12.9 0.00 0.00 0.00 74 1014.3
20260507010004 9 100 8.0 12.9 0.00 0.00 0.00 74 1014.3
20260507005504 9 109 4.8 11.3 0.00 0.00 0.00 74 1014.3
20260507004504 9 119 3.2 9.7 0.00 0.00 0.00 73 1014.2
20260507003503 10 86 4.8 12.9 0.00 0.00 0.00 73 1014.2
20260507003004 10 119 8.0 12.9 0.00 0.00 0.00 72 1014.2
20260507002504 10 99 4.8 12.9 0.00 0.00 0.00 72 1014.3
20260507002004 10 90 8.0 12.9 0.00 0.00 0.00 72 1014.2
20260507001504 10 93 4.8 12.9 0.00 0.00 0.00 71 1014.3
20260507001004 10 89 8.0 14.5 0.00 0.00 0.00 71 1014.3
20260507000503 10 102 8.0 12.9 0.00 0.00 0.00 71 1014.3
20260507000004 10 98 8.0 12.9 0.00 0.00 0.00 70 1014.3
20260506235503 10 104 4.8 12.9 0.00 0.00 0.00 70 1014.3
20260506235004 10 94 3.2 12.9 0.00 0.00 0.00 70 1014.3
20260506234503 10 88 8.0 14.5 0.00 0.00 0.00 69 1014.3
20260506234003 10 104 4.8 12.9 0.00 0.00 0.00 69 1014.2
20260506233504 10 103 6.4 12.9 0.00 0.00 0.00 69 1014.2
20260506233003 10 113 4.8 9.7 0.00 0.00 0.00 68 1014.2
20260506231504 10 99 4.8 11.3 0.00 0.00 0.00 67 1014.2
20260506231003 10 99 4.8 11.3 0.00 0.00 0.00 67 1014.2
20260506230503 10 106 4.8 11.3 0.00 0.00 0.00 67 1014.1
20260506230004 10 103 4.8 11.3 0.00 0.00 0.00 67 1014.2
20260506225504 10 96 3.2 12.9 0.00 0.00 0.00 67 1014.2
20260506225004 10 111 3.2 4.8 0.00 0.00 0.00 67 1014.2
20260506224503 10 111 3.2 9.7 0.00 0.00 0.00 67 1014.2
20260506224004 10 108 3.2 9.7 0.00 0.00 0.00 68 1014.1
20260506223504 10 97 1.6 4.8 0.00 0.00 0.00 68 1014.1
20260506223003 10 97 1.6 4.8 0.00 0.00 0.00 68 1014.1
20260506222503 10 97 1.6 4.8 0.00 0.00 0.00 67 1014.0
20260506222004 10 97 1.6 4.8 0.00 0.00 0.00 68 1014.0
20260506221504 10 97 1.6 4.8 0.00 0.00 0.00 67 1014.0
20260506221004 10 120 3.2 4.8 0.00 0.00 0.00 67 1014.0
20260506220503 10 134 1.6 4.8 0.00 0.00 0.00 67 1013.9
20260506220004 10 134 3.2 4.8 0.00 0.00 0.00 66 1013.9
20260506215504 10 135 3.2 4.8 0.00 0.00 0.00 66 1013.9
20260506215004 10 135 1.6 3.2 0.00 0.00 0.00 67 1013.9
20260506214504 10 135 1.6 3.2 0.00 0.00 0.00 67 1013.9
20260506214004 10 135 1.6 4.8 0.00 0.00 0.00 66 1013.9
20260506213503 10 135 3.2 4.8 0.00 0.00 0.00 66 1013.9
20260506213003 10 135 3.2 4.8 0.00 0.00 0.00 66 1013.9
20260506212503 11 135 3.2 4.8 0.00 0.00 0.00 65 1013.8
20260506211003 11 135 1.6 4.8 0.00 0.00 0.00 65 1013.8
20260506210503 11 135 1.6 4.8 0.00 0.00 0.00 65 1013.7
20260506210004 11 138 3.2 4.8 0.00 0.00 0.00 64 1013.7
20260506205504 11 138 0.0 0.0 0.00 0.00 0.00 64 1013.7
20260506205004 11 138 3.2 3.2 0.00 0.00 0.00 63 1013.7
20260506204503 11 138 3.2 4.8 0.00 0.00 0.00 62 1013.7
20260506203505 11 138 3.2 4.8 0.00 0.00 0.00 63 1013.7
20260506203003 11 138 1.6 4.8 0.00 0.00 0.00 63 1013.6
20260506202503 11 138 1.6 4.8 0.00 0.00 0.00 64 1013.7
20260506202003 12 138 1.6 3.2 0.00 0.00 0.00 62 1013.6
20260506201503 12 138 1.6 3.2 0.00 0.00 0.00 62 1013.6
20260506200503 12 138 1.6 3.2 0.00 0.00 0.00 62 1013.5
20260506200004 12 138 1.6 3.2 0.00 0.00 0.00 61 1013.4
20260506195504 12 138 3.2 4.8 0.00 0.00 0.00 61 1013.4
20260506194504 12 138 1.6 3.2 0.00 0.00 0.00 59 1013.4
20260506194003 12 138 1.6 4.8 0.00 0.00 0.00 59 1013.3
20260506193504 12 138 3.2 4.8 0.00 0.00 0.00 58 1013.3
20260506193004 12 137 3.2 4.8 0.00 0.00 0.00 58 1013.2
20260506192504 12 141 1.6 4.8 0.00 0.00 0.00 58 1013.2
20260506192004 12 134 1.6 3.2 0.00 0.00 0.00 57 1013.3
20260506191503 13 134 1.6 4.8 0.00 0.00 0.00 56 1013.2
20260506191003 13 134 1.6 4.8 0.00 0.00 0.00 57 1013.2
20260506190005 13 134 3.2 4.8 0.00 0.00 0.00 56 1013.2
20260506185505 13 134 3.2 4.8 0.00 0.00 0.00 56 1013.2
20260506185003 13 134 1.6 4.8 0.00 0.00 0.00 56 1013.1
20260506184503 13 134 3.2 4.8 0.00 0.00 0.00 57 1013.1
20260506183504 13 132 4.8 8.0 0.00 0.00 0.00 56 1013.1
20260506183004 13 138 3.2 4.8 0.00 0.00 0.00 55 1013.1
20260506182505 13 132 3.2 4.8 0.00 0.00 0.00 56 1013.1
20260506182004 13 135 4.8 4.8 0.00 0.00 0.00 55 1013.0
20260506181503 13 137 4.8 11.3 0.00 0.00 0.00 56 1013.0
20260506181004 13 124 1.6 4.8 0.00 0.00 0.00 57 1013.0
20260506180504 13 127 3.2 4.8 0.00 0.00 0.00 57 1013.0
20260506180005 13 138 3.2 8.0 0.00 0.00 0.00 56 1013.0
20260506175503 13 130 3.2 8.0 0.00 0.00 0.00 56 1012.9
20260506175003 13 125 3.2 8.0 0.00 0.00 0.00 55 1012.9
20260506174503 13 124 4.8 11.3 0.00 0.00 0.00 53 1012.9
20260506174003 13 113 6.4 12.9 0.00 0.00 0.00 52 1012.9
20260506173504 13 109 3.2 9.7 0.00 0.00 0.00 53 1012.9
20260506172503 14 65 3.2 4.8 0.00 0.00 0.00 53 1012.8
20260506172004 14 65 4.8 11.3 0.00 0.00 0.00 53 1012.8
20260506171503 14 117 3.2 4.8 0.00 0.00 0.00 52 1012.8
20260506171003 14 137 3.2 4.8 0.00 0.00 0.00 53 1012.7
20260506170004 14 138 3.2 4.8 0.00 0.00 0.00 54 1012.8
20260506165504 14 139 1.6 4.8 0.00 0.00 0.00 51 1012.7
20260506164503 15 113 8.0 12.9 0.00 0.00 0.00 53 1012.7
20260506164004 15 126 8.0 12.9 0.00 0.00 0.00 52 1012.7
20260506162503 15 127 4.8 11.3 0.00 0.00 0.00 50 1012.7
20260506162003 15 158 4.8 12.9 0.00 0.00 0.00 48 1012.7
20260506161503 15 113 8.0 14.5 0.00 0.00 0.00 49 1012.7
20260506161003 15 107 9.7 14.5 0.00 0.00 0.00 49 1012.7
20260506160504 15 92 4.8 12.9 0.00 0.00 0.00 47 1012.7
20260506160004 15 92 3.2 11.3 0.00 0.00 0.00 49 1012.8
20260506155503 16 136 4.8 9.7 0.00 0.00 0.00 49 1012.8
20260506155004 16 115 4.8 8.0 0.00 0.00 0.00 50 1012.8
20260506154004 15 128 8.0 14.5 0.00 0.00 0.00 52 1012.8
20260506153504 15 176 8.0 14.5 0.00 0.00 0.00 48 1012.8
20260506153004 16 149 8.0 14.5 0.00 0.00 0.00 47 1012.8
20260506152504 16 131 11.3 19.3 0.00 0.00 0.00 48 1012.8
20260506152004 17 169 8.0 12.9 0.00 0.00 0.00 47 1012.8
20260506151004 16 110 4.8 16.1 0.00 0.00 0.00 46 1012.9
20260506150504 16 96 8.0 14.5 0.00 0.00 0.00 47 1012.9
20260506145503 16 72 4.8 12.9 0.00 0.00 0.00 47 1012.9
20260506145004 16 61 8.0 16.1 0.00 0.00 0.00 46 1013.0
20260506144503 16 117 8.0 19.3 0.00 0.00 0.00 44 1013.0
20260506144004 16 94 6.4 16.1 0.00 0.00 0.00 48 1013.1
20260506143504 16 102 9.7 19.3 0.00 0.00 0.00 50 1013.0
20260506143003 16 75 11.3 19.3 0.00 0.00 0.00 49 1013.0
20260506142003 16 81 9.7 16.1 0.00 0.00 0.00 47 1013.1
20260506141504 16 123 8.0 14.5 0.00 0.00 0.00 49 1013.1
20260506141004 16 89 8.0 16.1 0.00 0.00 0.00 52 1013.2
20260506140004 16 59 4.8 14.5 0.00 0.00 0.00 52 1013.3
20260506135503 15 111 8.0 16.1 0.00 0.00 0.00 48 1013.4
20260506135004 15 114 6.4 12.9 0.00 0.00 0.00 48 1013.3
20260506134503 15 108 4.8 11.3 0.00 0.00 0.00 51 1013.3
20260506133503 15 83 11.3 19.3 0.00 0.00 0.00 47 1013.4
20260506133003 15 313 3.2 14.5 0.00 0.00 0.00 48 1013.4
20260506132505 15 70 9.7 16.1 0.00 0.00 0.00 47 1013.5
20260506132003 15 90 4.8 19.3 0.00 0.00 0.00 49 1013.4
20260506131504 16 90 8.0 16.1 0.00 0.00 0.00 48 1013.5
20260506131003 16 75 9.7 14.5 0.00 0.00 0.00 47 1013.4
20260506130504 16 127 11.3 19.3 0.00 0.00 0.00 46 1013.4
20260506130005 16 64 8.0 19.3 0.00 0.00 0.00 48 1013.5
20260506125504 16 122 6.4 20.9 0.00 0.00 0.00 47 1013.5
20260506124504 16 148 9.7 19.3 0.00 0.00 0.00 48 1013.5
20260506123504 16 97 16.1 24.1 0.00 0.00 0.00 48 1013.4
20260506123005 15 132 12.9 22.5 0.00 0.00 0.00 47 1013.4
20260506122504 15 125 14.5 19.3 0.00 0.00 0.00 49 1013.4
20260506122003 15 115 14.5 24.1 0.00 0.00 0.00 48 1013.4
20260506121503 15 117 17.7 25.7 0.00 0.00 0.00 47 1013.4
20260506121003 15 102 14.5 24.1 0.00 0.00 0.00 49 1013.4
20260506120504 16 97 11.3 20.9 0.00 0.00 0.00 45 1013.4
20260506120003 16 118 12.9 19.3 0.00 0.00 0.00 47 1013.4
20260506115003 15 122 8.0 20.9 0.00 0.00 0.00 55 1013.5
20260506114505 15 120 9.7 22.5 0.00 0.00 0.00 52 1013.5
20260506113504 14 108 9.7 19.3 0.00 0.00 0.00 51 1013.5
20260506113004 14 115 12.9 20.9 0.00 0.00 0.00 52 1013.6
20260506112503 14 103 11.3 19.3 0.00 0.00 0.00 50 1013.6
20260506112004 14 88 11.3 16.1 0.00 0.00 0.00 53 1013.6
20260506111503 13 103 16.1 20.9 0.00 0.00 0.00 53 1013.7
20260506110004 13 101 11.3 19.3 0.00 0.00 0.00 52 1013.8
20260506105503 13 91 9.7 19.3 0.00 0.00 0.00 53 1013.8
20260506104504 13 95 11.3 22.5 0.00 0.00 0.00 58 1013.8
20260506104005 13 114 11.3 19.3 0.00 0.00 0.00 58 1013.8
20260506103503 13 86 9.7 19.3 0.00 0.00 0.00 58 1013.8
20260506103003 12 114 6.4 16.1 0.00 0.00 0.00 59 1013.7
20260506102504 12 102 9.7 19.3 0.00 0.00 0.00 58 1013.8
20260506102004 12 114 8.0 19.3 0.00 0.00 0.00 58 1013.8
20260506101003 12 109 11.3 16.1 0.00 0.00 0.00 59 1013.9
20260506100504 12 117 6.4 14.5 0.00 0.00 0.00 60 1013.9
20260506100004 12 131 6.4 14.5 0.00 0.00 0.00 61 1013.9
20260506095504 11 122 8.0 14.5 0.00 0.00 0.00 62 1013.9
20260506095004 11 122 8.0 16.1 0.00 0.00 0.00 61 1013.9
20260506094504 11 93 4.8 14.5 0.00 0.00 0.00 62 1014.0
20260506094004 11 72 6.4 12.9 0.00 0.00 0.00 65 1014.0